Date,TemperatureHighF,TemperatureAvgF,TemperatureLowF,DewpointHighF,DewpointAvgF,DewpointLowF,HumidityHigh,HumidityAvg,HumidityLow,PressureMaxIn,PressureMinIn,WindSpeedMaxMPH,WindSpeedAvgMPH,GustSpeedMaxMPH,PrecipitationSumIn
2013-1-1,28,21,16,-100,-100,-100,0,0,100,0.00,40.00,0,-999,0,0.00
2013-1-2,37,24,10,-100,-100,-100,0,0,100,0.00,40.00,0,-999,0,0.00
2013-1-3,38,25,14,-100,-100,-100,0,0,100,0.00,40.00,0,-999,0,0.00
2013-1-4,41,28,15,-100,-100,-100,0,0,100,0.00,40.00,0,-999,0,0.00
2013-1-5,43,33,20,-100,-100,-100,0,0,100,0.00,40.00,0,-999,0,0.00
2013-1-6,50,36,20,-100,-100,-100,0,0,100,0.00,40.00,0,-999,0,0.00
2013-1-7,54,40,35,-100,-100,-100,0,0,100,0.00,40.00,0,-999,0,0.00
2013-1-8,62,42,32,-100,-100,-100,0,0,100,0.00,40.00,0,-999,0,0.00
2013-1-9,54,43,32,-100,-100,-100,0,0,100,0.00,40.00,0,-999,0,0.00
2013-1-10,47,41,38,-100,-100,-100,0,0,100,0.00,40.00,0,-999,0,0.00
2013-1-11,62,48,29,-100,-100,-100,0,0,100,0.00,40.00,0,-999,0,0.00
2013-1-12,29,26,20,-100,-100,-100,0,0,100,0.00,40.00,0,-999,0,0.00
2013-1-13,31,23,15,-100,-100,-100,0,0,100,0.00,40.00,0,-999,0,0.00
2013-1-14,34,27,17,-100,-100,-100,0,0,100,0.00,40.00,0,-999,0,0.00
2013-1-15,36,25,18,-100,-100,-100,0,0,100,0.00,40.00,0,-999,0,0.00
2013-1-16,57,38,18,-100,-100,-100,0,0,100,0.00,40.00,0,-999,0,0.00
2013-1-17,57,42,29,-100,-100,-100,0,0,100,0.00,40.00,0,-999,0,0.00
2013-1-18,64,46,35,-100,-100,-100,0,0,100,0.00,40.00,0,-999,0,0.00
2013-1-19,62,40,29,-100,-100,-100,0,0,100,0.00,40.00,0,-999,0,0.00
2013-1-20,58,40,27,-100,-100,-100,0,0,100,0.00,40.00,0,-999,0,0.00
2013-1-21,51,33,20,-100,-100,-100,0,0,100,0.00,40.00,0,-999,0,0.00
2013-1-22,64,41,27,-100,-100,-100,0,0,100,0.00,40.00,0,-999,0,0.00
2013-1-23,74,44,25,-100,-100,-100,0,0,100,0.00,40.00,0,-999,0,0.00
2013-1-24,38,30,25,-100,-100,-100,0,0,100,0.00,40.00,0,-999,0,0.00
2013-1-25,56,41,29,-100,-100,-100,0,0,100,0.00,40.00,0,-999,0,0.00
2013-1-26,62,46,29,-100,-100,-100,0,0,100,0.00,40.00,0,-999,0,0.00
2013-1-27,76,60,48,-100,-100,-100,0,0,100,0.00,40.00,0,-999,0,0.00
2013-1-28,73,57,41,-100,-100,-100,0,0,100,0.00,40.00,0,-999,0,0.00
2013-1-29,52,39,28,-100,-100,-100,0,0,100,0.00,40.00,0,-999,0,0.00
2013-1-30,47,34,24,-100,-100,-100,0,0,100,0.00,40.00,0,-999,0,0.00
2013-1-31,50,40,24,-100,-100,-100,0,0,100,0.00,40.00,0,-999,0,0.00
2013-2-1,62,34,16,-100,-100,-100,0,0,100,0.00,40.00,0,-999,0,0.00
2013-2-2,60,43,31,-100,-100,-100,0,0,100,0.00,40.00,0,-999,0,0.00
2013-2-3,65,45,25,-100,-100,-100,0,0,100,0.00,40.00,0,-999,0,0.00
2013-2-4,60,46,34,-100,-100,-100,0,0,100,0.00,40.00,0,-999,0,0.00
2013-2-5,66,47,26,-100,-100,-100,0,0,100,0.00,40.00,0,-999,0,0.00
2013-2-6,73,51,32,-100,-100,-100,0,0,100,0.00,40.00,0,-999,0,0.00
2013-2-7,58,46,32,-100,-100,-100,0,0,100,0.00,40.00,0,-999,0,0.00
2013-2-8,60,41,24,-100,-100,-100,0,0,100,0.00,40.00,0,-999,0,0.00
2013-2-9,65,49,33,-100,-100,-100,0,0,100,0.00,40.00,0,-999,0,0.00
2013-2-10,53,42,30,-100,-100,-100,0,0,100,0.00,40.00,0,-999,0,0.00
2013-2-11,48,33,21,-100,-100,-100,0,0,100,0.00,40.00,0,-999,0,0.00
2013-2-12,40,36,29,-100,-100,-100,0,0,100,0.00,40.00,0,-999,0,0.00
2013-2-13,48,36,22,-100,-100,-100,0,0,100,0.00,40.00,0,-999,0,0.00
2013-2-14,51,40,31,-100,-100,-100,0,0,100,0.00,40.00,0,-999,0,0.00
2013-2-15,51,37,29,-100,-100,-100,0,0,100,0.00,40.00,0,-999,0,0.00
2013-2-16,67,39,23,-100,-100,-100,0,0,100,0.00,40.00,0,-999,0,0.00
2013-2-17,73,50,28,-100,-100,-100,0,0,100,0.00,40.00,0,-999,0,0.00
2013-2-18,53,43,32,-100,-100,-100,0,0,100,0.00,40.00,0,-999,0,0.00
2013-2-19,56,39,21,-100,-100,-100,0,0,100,0.00,40.00,0,-999,0,0.00
2013-2-20,43,37,33,-100,-100,-100,0,0,100,0.00,40.00,0,-999,0,0.00
2013-2-21,33,26,17,-100,-100,-100,0,0,100,0.00,40.00,0,-999,0,0.00
2013-2-22,39,23,7,-100,-100,-100,0,0,100,0.00,40.00,0,-999,0,0.00
2013-2-23,42,34,21,-100,-100,-100,0,0,100,0.00,40.00,0,-999,0,0.00
2013-2-24,40,33,28,-100,-100,-100,0,0,100,0.00,40.00,0,-999,0,0.00
2013-2-25,33,30,28,-100,-100,-100,0,0,100,0.00,40.00,0,-999,0,0.00
2013-2-26,39,31,22,-100,-100,-100,0,0,100,0.00,40.00,0,-999,0,0.00
2013-2-27,46,36,29,-100,-100,-100,0,0,100,0.00,40.00,0,-999,0,0.00
2013-2-28,53,38,29,-100,-100,-100,0,0,100,0.00,40.00,0,-999,0,0.00
2013-3-1,51,41,32,-100,-100,-100,0,0,100,0.00,40.00,0,-999,0,0.00
2013-3-2,67,50,30,-100,-100,-100,0,0,100,0.00,40.00,0,-999,0,0.00
2013-3-3,77,56,35,-100,-100,-100,0,0,100,0.00,40.00,0,-999,0,0.00
2013-3-4,61,47,34,-100,-100,-100,0,0,100,0.00,40.00,0,-999,0,0.00
2013-3-5,53,38,25,-100,-100,-100,0,0,100,0.00,40.00,0,-999,0,0.00
2013-3-6,60,44,30,-100,-100,-100,0,0,100,0.00,40.00,0,-999,0,0.00
2013-3-7,85,60,36,-100,-100,-100,0,0,100,0.00,40.00,0,-999,0,0.00
2013-3-8,73,59,51,-100,-100,-100,0,0,100,0.00,40.00,0,-999,0,0.00
2013-3-9,66,53,36,-100,-100,-100,0,0,100,0.00,40.00,0,-999,0,0.00
2013-3-10,40,34,27,-100,-100,-100,0,0,100,0.00,40.00,0,-999,0,0.00
2013-3-11,69,44,22,-100,-100,-100,0,0,100,0.00,40.00,0,-999,0,0.00
2013-3-12,56,46,32,-100,-100,-100,0,0,100,0.00,40.00,0,-999,0,0.00
2013-3-13,73,52,34,-100,-100,-100,0,0,100,0.00,40.00,0,-999,0,0.00
2013-3-14,80,59,35,-100,-100,-100,0,0,100,0.00,40.00,0,-999,0,0.00
2013-3-15,88,64,41,-100,-100,-100,0,0,100,0.00,40.00,0,-999,0,0.00
2013-3-16,58,50,41,-100,-100,-100,0,0,100,0.00,40.00,0,-999,0,0.00
2013-3-17,65,46,32,-100,-100,-100,0,0,100,0.00,40.00,0,-999,0,0.00
2013-3-18,62,47,34,-100,-100,-100,0,0,100,0.00,40.00,0,-999,0,0.00
2013-3-19,58,45,34,-100,-100,-100,0,0,100,0.00,40.00,0,-999,0,0.00
2013-3-20,64,44,25,-100,-100,-100,0,0,100,0.00,40.00,0,-999,0,0.00
2013-3-21,67,52,43,-100,-100,-100,0,0,100,0.00,40.00,0,-999,0,0.00
2013-3-22,61,43,29,-100,-100,-100,0,0,100,0.00,40.00,0,-999,0,0.00
2013-3-23,43,34,26,-100,-100,-100,0,0,100,0.00,40.00,0,-999,0,0.00
2013-3-24,41,30,19,-100,-100,-100,0,0,100,0.00,40.00,0,-999,0,0.00
2013-3-25,46,35,21,-100,-100,-100,0,0,100,0.00,40.00,0,-999,0,0.00
2013-3-26,66,43,20,-100,-100,-100,0,0,100,0.00,40.00,0,-999,0,0.00
2013-3-27,65,51,36,-100,-100,-100,0,0,100,0.00,40.00,0,-999,0,0.00
2013-3-28,72,54,38,-100,-100,-100,0,0,100,0.00,40.00,0,-999,0,0.00
2013-3-29,73,58,43,-100,-100,-100,0,0,100,0.00,40.00,0,-999,0,0.00
2013-3-30,80,65,43,-100,-100,-100,0,0,100,0.00,40.00,0,-999,0,0.00
2013-3-31,73,58,46,-100,-100,-100,0,0,100,0.00,40.00,0,-999,0,0.00
2013-4-1,52,42,36,-100,-100,-100,0,0,100,0.00,40.00,0,-999,0,0.00
2013-4-2,38,35,33,-100,-100,-100,0,0,100,0.00,40.00,0,-999,0,0.00
2013-4-3,40,36,33,-100,-100,-100,0,0,100,0.00,40.00,0,-999,0,0.00
2013-4-4,69,47,32,-100,-100,-100,0,0,100,0.00,40.00,0,-999,0,0.00
2013-4-5,85,61,36,-100,-100,-100,0,0,100,0.00,40.00,0,-999,0,0.00
2013-4-6,76,65,54,-100,-100,-100,0,0,100,0.00,40.00,0,-999,0,0.00
2013-4-7,82,63,47,-100,-100,-100,0,0,100,0.00,40.00,0,-999,0,0.00
2013-4-8,87,70,55,-100,-100,-100,0,0,100,0.00,40.00,0,-999,0,0.00
2013-4-9,67,42,26,-100,-100,-100,0,0,100,0.00,40.00,0,-999,0,0.00
2013-4-10,47,34,21,-100,-100,-100,0,0,100,0.00,40.00,0,-999,0,0.00
2013-4-11,69,45,23,-100,-100,-100,0,0,100,0.00,40.00,0,-999,0,0.00
2013-4-12,74,55,40,-100,-100,-100,0,0,100,0.00,40.00,0,-999,0,0.00
2013-4-13,83,61,37,-100,-100,-100,0,0,100,0.00,40.00,0,-999,0,0.00
2013-4-14,76,65,55,-100,-100,-100,0,0,100,0.00,40.00,0,-999,0,0.00
2013-4-15,73,54,39,-100,-100,-100,0,0,100,0.00,40.00,0,-999,0,0.00
2013-4-16,57,47,39,-100,-100,-100,0,0,100,0.00,40.00,0,-999,0,0.00
2013-4-17,43,39,35,-100,-100,-100,0,0,100,0.00,40.00,0,-999,0,0.00
2013-4-18,48,37,28,-100,-100,-100,0,0,100,0.00,40.00,0,-999,0,0.00
2013-4-19,69,48,25,-100,-100,-100,0,0,100,0.00,40.00,0,-999,0,0.00
2013-4-20,70,57,41,-100,-100,-100,0,0,100,0.00,40.00,0,-999,0,0.00
2013-4-21,80,58,33,-100,-100,-100,0,0,100,0.00,40.00,0,-999,0,0.00
2013-4-22,81,58,35,-100,-100,-100,0,0,100,0.00,40.00,0,-999,0,0.00
2013-4-23,36,33,30,-100,-100,-100,0,0,100,0.00,40.00,0,-999,0,0.00
2013-4-24,69,49,21,-100,-100,-100,0,0,100,0.00,40.00,0,-999,0,0.00
2013-4-25,72,55,38,-100,-100,-100,0,0,100,0.00,40.00,0,-999,0,0.00
2013-4-26,77,60,49,-100,-100,-100,0,0,100,0.00,40.00,0,-999,0,0.00
2013-4-27,83,62,41,-100,-100,-100,0,0,100,0.00,40.00,0,-999,0,0.00
2013-4-28,92,72,43,-100,-100,-100,0,0,100,0.00,40.00,0,-999,0,0.00
2013-4-29,94,75,58,-100,-100,-100,0,0,100,0.00,40.00,0,-999,0,0.00
2013-4-30,94,80,64,-100,-100,-100,0,0,100,0.00,40.00,0,-999,0,0.00
2013-5-1,73,46,35,-100,-100,-100,0,0,100,0.00,40.00,0,-999,0,0.00
2013-5-2,54,43,33,-100,-100,-100,0,0,100,0.00,40.00,0,-999,0,0.00
2013-5-3,69,50,27,-100,-100,-100,0,0,100,0.00,40.00,0,-999,0,0.00
2013-5-4,69,54,36,-100,-100,-100,0,0,100,0.00,40.00,0,-999,0,0.00
2013-5-5,70,52,36,-100,-100,-100,0,0,100,0.00,40.00,0,-999,0,0.00
2013-5-6,80,61,40,-100,-100,-100,0,0,100,0.00,40.00,0,-999,0,0.00
2013-5-7,87,71,47,-100,-100,-100,0,0,100,0.00,40.00,0,-999,0,0.00
2013-5-8,91,72,56,-100,-100,-100,0,0,100,0.00,40.00,0,-999,0,0.00
2013-5-9,76,62,51,-100,-100,-100,0,0,100,0.00,40.00,0,-999,0,0.00
2013-5-10,74,63,51,-100,-100,-100,0,0,100,0.00,40.00,0,-999,0,0.00
2013-5-11,76,61,46,-100,-100,-100,0,0,100,0.00,40.00,0,-999,0,0.00
2013-5-12,88,66,45,-100,-100,-100,0,0,100,0.00,40.00,0,-999,0,0.00
2013-5-13,98,76,51,-100,-100,-100,0,0,100,0.00,40.00,0,-999,0,0.00
2013-5-14,96,78,64,-100,-100,-100,0,0,100,0.00,40.00,0,-999,0,0.00
2013-5-15,95,75,58,-100,-100,-100,0,0,100,0.00,40.00,0,-999,0,0.00
2013-5-16,93,75,54,-100,-100,-100,0,0,100,0.00,40.00,0,-999,0,0.00
2013-5-17,95,77,60,-100,-100,-100,0,0,100,0.00,40.00,0,-999,0,0.00
2013-5-18,101,80,68,-100,-100,-100,0,0,100,0.00,40.00,0,-999,0,0.00
2013-5-19,83,74,65,-100,-100,-100,0,0,100,0.00,40.00,0,-999,0,0.00
2013-5-20,81,64,53,-100,-100,-100,0,0,100,0.00,40.00,0,-999,0,0.00
2013-5-21,80,68,54,-100,-100,-100,0,0,100,0.00,40.00,0,-999,0,0.00
2013-5-22,91,70,48,-100,-100,-100,0,0,100,0.00,40.00,0,-999,0,0.00
2013-5-23,71,64,59,-100,-100,-100,0,0,100,0.00,40.00,0,-999,0,0.00
2013-5-24,92,74,60,-100,-100,-100,0,0,100,0.00,40.00,0,-999,0,0.00
2013-5-25,95,79,65,-100,-100,-100,0,0,100,0.00,40.00,0,-999,0,0.00
2013-5-26,100,83,63,-100,-100,-100,0,0,100,0.00,40.00,0,-999,0,0.00
2013-5-27,102,86,72,-100,-100,-100,0,0,100,0.00,40.00,0,-999,0,0.00
2013-5-28,103,82,59,-100,-100,-100,0,0,100,0.00,40.00,0,-999,0,0.00
2013-5-29,93,78,68,-100,-100,-100,0,0,100,0.00,40.00,0,-999,0,0.00
2013-5-30,94,76,60,-100,-100,-100,0,0,100,0.00,40.00,0,-999,0,0.00
2013-5-31,95,77,56,-100,-100,-100,0,0,100,0.00,40.00,0,-999,0,0.00
2013-6-1,81,71,54,-100,-100,-100,0,0,100,0.00,40.00,0,-999,0,0.00
2013-6-2,89,70,48,-100,-100,-100,0,0,100,0.00,40.00,0,-999,0,0.00
2013-6-3,96,76,65,-100,-100,-100,0,0,100,0.00,40.00,0,-999,0,0.00
2013-6-4,94,76,58,-100,-100,-100,0,0,100,0.00,40.00,0,-999,0,0.00
2013-6-5,69,64,60,-100,-100,-100,0,0,100,0.00,40.00,0,-999,0,0.00
2013-6-6,79,68,58,-100,-100,-100,0,0,100,0.00,40.00,0,-999,0,0.00
2013-6-7,90,70,60,-100,-100,-100,0,0,100,0.00,40.00,0,-999,0,0.00
2013-6-8,90,74,61,-100,-100,-100,0,0,100,0.00,40.00,0,-999,0,0.00
2013-6-9,94,77,59,-100,-100,-100,0,0,100,0.00,40.00,0,-999,0,0.00
2013-6-10,107,85,69,-100,-100,-100,0,0,100,0.00,40.00,0,-999,0,0.00
2013-6-11,106,92,76,-100,-100,-100,0,0,100,0.00,40.00,0,-999,0,0.00
2013-6-12,103,90,76,-100,-100,-100,0,0,100,0.00,40.00,0,-999,0,0.00
2013-6-13,102,88,72,-100,-100,-100,0,0,100,0.00,40.00,0,-999,0,0.00
2013-6-14,100,86,73,-100,-100,-100,0,0,100,0.00,40.00,0,-999,0,0.00
2013-6-15,98,82,69,-100,-100,-100,0,0,100,0.00,40.00,0,-999,0,0.00
2013-6-16,94,80,64,-100,-100,-100,0,0,100,0.00,40.00,0,-999,0,0.00
2013-6-17,86,74,63,-100,-100,-100,0,0,100,0.00,40.00,0,-999,0,0.00
2013-6-18,91,82,68,-100,-100,-100,0,0,100,0.00,40.00,0,-999,0,0.00
2013-6-19,88,75,65,-100,-100,-100,0,0,100,0.00,40.00,0,-999,0,0.00
2013-6-20,94,76,65,-100,-100,-100,0,0,100,0.00,40.00,0,-999,0,0.00
2013-6-22,98,89,82,-100,-100,-100,0,0,100,0.00,40.00,0,-999,0,0.00
2013-6-23,101,86,73,-100,-100,-100,0,0,100,0.00,40.00,0,-999,0,0.00
2013-6-24,99,85,76,-100,-100,-100,0,0,100,0.00,40.00,0,-999,0,0.00
2013-6-25,106,89,76,-100,-100,-100,0,0,100,0.00,40.00,0,-999,0,0.00
2013-6-26,102,83,62,-100,-100,-100,0,0,100,0.00,40.00,0,-999,0,0.00
2013-6-27,112,87,74,-100,-100,-100,0,0,100,0.00,40.00,0,-999,0,0.00
2013-6-28,99,85,70,-100,-100,-100,0,0,100,0.00,40.00,0,-999,0,0.00
2013-6-29,94,83,72,-100,-100,-100,0,0,100,0.00,40.00,0,-999,0,0.00
2013-6-30,86,74,65,-100,-100,-100,0,0,100,0.00,40.00,0,-999,0,0.00
2013-7-1,83,72,60,-100,-100,-100,0,0,100,0.00,40.00,0,-999,0,0.00
2013-7-2,87,76,54,-100,-100,-100,0,0,100,0.00,40.00,0,-999,0,0.00
2013-7-3,88,75,63,-100,-100,-100,0,0,100,0.00,40.00,0,-999,0,0.00
2013-7-4,95,80,64,-100,-100,-100,0,0,100,0.00,40.00,0,-999,0,0.00
2013-7-5,99,86,67,-100,-100,-100,0,0,100,0.00,40.00,0,-999,0,0.00
2013-7-6,103,85,77,-100,-100,-100,0,0,100,0.00,40.00,0,-999,0,0.00
2013-7-7,104,90,71,-100,-100,-100,0,0,100,0.00,40.00,0,-999,0,0.00
2013-7-8,105,87,76,-100,-100,-100,0,0,100,0.00,40.00,0,-999,0,0.00
2013-7-9,107,93,76,-100,-100,-100,0,0,100,0.00,40.00,0,-999,0,0.00
2013-7-10,102,84,74,-100,-100,-100,0,0,100,0.00,40.00,0,-999,0,0.00
2013-7-11,98,83,71,-100,-100,-100,0,0,100,0.00,40.00,0,-999,0,0.00
2013-7-12,104,85,72,-100,-100,-100,0,0,100,0.00,40.00,0,-999,0,0.00
2013-7-13,108,90,74,-100,-100,-100,0,0,100,0.00,40.00,0,-999,0,0.00
2013-7-14,84,78,65,-100,-100,-100,0,0,100,0.00,40.00,0,-999,0,0.00
2013-7-15,76,67,60,-100,-100,-100,0,0,100,0.00,40.00,0,-999,0,0.00
2013-7-16,76,68,62,-100,-100,-100,0,0,100,0.00,40.00,0,-999,0,0.00
2013-7-17,87,74,67,-100,-100,-100,0,0,100,0.00,40.00,0,-999,0,0.00
2013-7-18,92,78,67,-100,-100,-100,0,0,100,0.00,40.00,0,-999,0,0.00
2013-7-19,98,85,70,-100,-100,-100,0,0,100,0.00,40.00,0,-999,0,0.00
2013-7-20,94,81,71,-100,-100,-100,0,0,100,0.00,40.00,0,-999,0,0.00
2013-7-21,104,83,71,-100,-100,-100,0,0,100,0.00,40.00,0,-999,0,0.00
2013-7-22,104,91,73,-100,-100,-100,0,0,100,0.00,40.00,0,-999,0,0.00
2013-7-23,108,90,76,-100,-100,-100,0,0,100,0.00,40.00,0,-999,0,0.00
2013-7-24,94,80,67,-100,-100,-100,0,0,100,0.00,40.00,0,-999,0,0.00
2013-7-25,91,79,70,-100,-100,-100,0,0,100,0.00,40.00,0,-999,0,0.00
2013-7-26,88,75,66,-100,-100,-100,0,0,100,0.00,40.00,0,-999,0,0.00
2013-7-27,98,84,65,-100,-100,-100,0,0,100,0.00,40.00,0,-999,0,0.00
2013-7-28,98,80,69,-100,-100,-100,0,0,100,0.00,40.00,0,-999,0,0.00
2013-7-29,100,80,69,-100,-100,-100,0,0,100,0.00,40.00,0,-999,0,0.00
2013-7-30,92,81,71,-100,-100,-100,0,0,100,0.00,40.00,0,-999,0,0.00
2013-7-31,97,80,68,-100,-100,-100,0,0,100,0.00,40.00,0,-999,0,0.00
2013-8-1,100,84,68,-100,-100,-100,0,0,100,0.00,40.00,0,-999,0,0.00
2013-8-2,106,91,73,-100,-100,-100,0,0,100,0.00,40.00,0,-999,0,0.00
2013-8-3,90,80,73,-100,-100,-100,0,0,100,0.00,40.00,0,-999,0,0.00
2013-8-4,99,84,70,-100,-100,-100,0,0,100,0.00,40.00,0,-999,0,0.00
2013-8-5,105,82,73,-100,-100,-100,0,0,100,0.00,40.00,0,-999,0,0.00
2013-8-6,97,82,69,-100,-100,-100,0,0,100,0.00,40.00,0,-999,0,0.00
2013-8-7,90,78,65,-100,-100,-100,0,0,100,0.00,40.00,0,-999,0,0.00
2013-8-8,81,71,65,-100,-100,-100,0,0,100,0.00,40.00,0,-999,0,0.00
2013-8-9,71,68,64,-100,-100,-100,0,0,100,0.00,40.00,0,-999,0,0.00
2013-8-10,82,71,60,-100,-100,-100,0,0,100,0.00,40.00,0,-999,0,0.00
2013-8-11,84,76,65,-100,-100,-100,0,0,100,0.00,40.00,0,-999,0,0.00
2013-8-12,95,74,67,-100,-100,-100,0,0,100,0.00,40.00,0,-999,0,0.00
2013-8-13,85,75,65,-100,-100,-100,0,0,100,0.00,40.00,0,-999,0,0.00
2013-8-14,79,70,65,-100,-100,-100,0,0,100,0.00,40.00,0,-999,0,0.00
2013-8-15,91,76,63,-100,-100,-100,0,0,100,0.00,40.00,0,-999,0,0.00
2013-8-16,94,78,68,-100,-100,-100,0,0,100,0.00,40.00,0,-999,0,0.00
2013-8-17,93,76,67,-100,-100,-100,0,0,100,0.00,40.00,0,-999,0,0.00
2013-8-18,93,76,63,-100,-100,-100,0,0,100,0.00,40.00,0,-999,0,0.00
2013-8-19,92,76,67,-100,-100,-100,0,0,100,0.00,40.00,0,-999,0,0.00
2013-8-20,97,82,68,-100,-100,-100,0,0,100,0.00,40.00,0,-999,0,0.00
2013-8-21,98,82,70,-100,-100,-100,0,0,100,0.00,40.00,0,-999,0,0.00
2013-8-22,100,85,65,-100,-100,-100,0,0,100,0.00,40.00,0,-999,0,0.00
2013-8-23,98,83,71,-100,-100,-100,0,0,100,0.00,40.00,0,-999,0,0.00
2013-8-24,99,85,71,-100,-100,-100,0,0,100,0.00,40.00,0,-999,0,0.00
2013-8-25,98,85,69,-100,-100,-100,0,0,100,0.00,40.00,0,-999,0,0.00
2013-8-26,98,85,71,-100,-100,-100,0,0,100,0.00,40.00,0,-999,0,0.00
2013-8-27,93,78,69,-100,-100,-100,0,0,100,0.00,40.00,0,-999,0,0.00
2013-8-28,99,93,83,-100,-100,-100,0,0,100,0.00,40.00,0,-999,0,0.00
2013-8-29,102,88,73,-100,-100,-100,0,0,100,0.00,40.00,0,-999,0,0.00
2013-8-30,105,91,69,-100,-100,-100,0,0,100,0.00,40.00,0,-999,0,0.00
2013-8-31,108,85,69,-100,-100,-100,0,0,100,0.00,40.00,0,-999,0,0.00
2013-9-1,92,82,72,-100,-100,-100,0,0,100,0.00,40.00,0,-999,0,0.00
2013-9-2,93,80,63,-100,-100,-100,0,0,100,0.00,40.00,0,-999,0,0.00
2013-9-3,100,79,65,-100,-100,-100,0,0,100,0.00,40.00,0,-999,0,0.00
2013-9-4,102,83,68,-100,-100,-100,0,0,100,0.00,40.00,0,-999,0,0.00
2013-9-5,102,85,68,-100,-100,-100,0,0,100,0.00,40.00,0,-999,0,0.00
2013-9-6,103,86,61,-100,-100,-100,0,0,100,0.00,40.00,0,-999,0,0.00
2013-9-7,104,87,65,-100,-100,-100,0,0,100,0.00,40.00,0,-999,0,0.00
2013-9-8,102,84,66,-100,-100,-100,0,0,100,0.00,40.00,0,-999,0,0.00
2013-9-9,96,82,68,-100,-100,-100,0,0,100,0.00,40.00,0,-999,0,0.00
2013-9-10,94,81,70,-100,-100,-100,0,0,100,0.00,40.00,0,-999,0,0.00
2013-9-11,87,75,69,-100,-100,-100,0,0,100,0.00,40.00,0,-999,0,0.00
2013-9-12,85,74,69,-100,-100,-100,0,0,100,0.00,40.00,0,-999,0,0.00
2013-9-13,80,70,65,-100,-100,-100,0,0,100,0.00,40.00,0,-999,0,0.00
2013-9-14,87,74,63,-100,-100,-100,0,0,100,0.00,40.00,0,-999,0,0.00
2013-9-15,86,71,65,-100,-100,-100,0,0,100,0.00,40.00,0,-999,0,0.00
2013-9-16,72,66,62,-100,-100,-100,0,0,100,0.00,40.00,0,-999,0,0.00
2013-9-17,88,75,64,-100,-100,-100,0,0,100,0.00,40.00,0,-999,0,0.00
2013-9-18,77,71,69,-100,-100,-100,0,0,100,0.00,40.00,0,-999,0,0.00
2013-9-19,87,75,65,-100,-100,-100,0,0,100,0.00,40.00,0,-999,0,0.00
2013-9-20,76,66,58,-100,-100,-100,0,0,100,0.00,40.00,0,-999,0,0.00
2013-9-21,85,69,55,-100,-100,-100,0,0,100,0.00,40.00,0,-999,0,0.00
2013-9-22,87,70,58,-100,-100,-100,0,0,100,0.00,40.00,0,-999,0,0.00
2013-9-23,83,71,61,-100,-100,-100,0,0,100,0.00,40.00,0,-999,0,0.00
2013-9-24,87,65,51,-100,-100,-100,0,0,100,0.00,40.00,0,-999,0,0.00
2013-9-25,92,78,59,-100,-100,-100,0,0,100,0.00,40.00,0,-999,0,0.00
2013-9-26,98,83,66,-100,-100,-100,0,0,100,0.00,40.00,0,-999,0,0.00
2013-9-27,87,76,70,-100,-100,-100,0,0,100,0.00,40.00,0,-999,0,0.00
2013-9-28,72,61,49,-100,-100,-100,0,0,100,0.00,40.00,0,-999,0,0.00
2013-9-29,83,65,44,-100,-100,-100,0,0,100,0.00,40.00,0,-999,0,0.00
2013-9-30,87,65,46,-100,-100,-100,0,0,100,0.00,40.00,0,-999,0,0.00
2013-10-1,74,70,66,-100,-100,-100,0,0,100,0.00,40.00,0,-999,0,0.00
2013-10-2,91,73,58,-100,-100,-100,0,0,100,0.00,40.00,0,-999,0,0.00
2013-10-3,94,75,52,-100,-100,-100,0,0,100,0.00,40.00,0,-999,0,0.00
2013-10-4,80,66,51,-100,-100,-100,0,0,100,0.00,40.00,0,-999,0,0.00
2013-10-5,69,53,45,-100,-100,-100,0,0,100,0.00,40.00,0,-999,0,0.00
2013-10-6,77,61,37,-100,-100,-100,0,0,100,0.00,40.00,0,-999,0,0.00
2013-10-7,86,60,41,-100,-100,-100,0,0,100,0.00,40.00,0,-999,0,0.00
2013-10-8,87,70,54,-100,-100,-100,0,0,100,0.00,40.00,0,-999,0,0.00
2013-10-9,86,71,56,-100,-100,-100,0,0,100,0.00,40.00,0,-999,0,0.00
2013-10-10,87,71,58,-100,-100,-100,0,0,100,0.00,40.00,0,-999,0,0.00
2013-10-11,79,62,47,-100,-100,-100,0,0,100,0.00,40.00,0,-999,0,0.00
2013-10-12,68,56,43,-100,-100,-100,0,0,100,0.00,40.00,0,-999,0,0.00
2013-10-13,71,56,41,-100,-100,-100,0,0,100,0.00,40.00,0,-999,0,0.00
2013-10-14,83,68,54,-100,-100,-100,0,0,100,0.00,40.00,0,-999,0,0.00
2013-10-15,62,50,40,-100,-100,-100,0,0,100,0.00,40.00,0,-999,0,0.00
2013-10-16,58,47,40,-100,-100,-100,0,0,100,0.00,40.00,0,-999,0,0.00
2013-10-17,68,52,35,-100,-100,-100,0,0,100,0.00,40.00,0,-999,0,0.00
2013-10-18,47,41,36,-100,-100,-100,0,0,100,0.00,40.00,0,-999,0,0.00
2013-10-19,71,46,32,-100,-100,-100,0,0,100,0.00,40.00,0,-999,0,0.00
2013-10-20,70,50,32,-100,-100,-100,0,0,100,0.00,40.00,0,-999,0,0.00
2013-10-21,67,54,43,-100,-100,-100,0,0,100,0.00,40.00,0,-999,0,0.00
2013-10-22,77,59,43,-100,-100,-100,0,0,100,0.00,40.00,0,-999,0,0.00
2013-10-23,77,58,38,-100,-100,-100,0,0,100,0.00,40.00,0,-999,0,0.00
2013-10-24,60,49,40,-100,-100,-100,0,0,100,0.00,40.00,0,-999,0,0.00
2013-10-25,69,52,36,-100,-100,-100,0,0,100,0.00,40.00,0,-999,0,0.00
2013-10-26,64,55,43,-100,-100,-100,0,0,100,0.00,40.00,0,-999,0,0.00
2013-10-27,40,36,33,-100,-100,-100,0,0,100,0.00,40.00,0,-999,0,0.00
2013-10-28,81,71,47,-100,-100,-100,0,0,100,0.00,40.00,0,-999,0,0.00
2013-10-29,60,51,43,-100,-100,-100,0,0,100,0.00,40.00,0,-999,0,0.00
2013-10-30,74,58,50,-100,-100,-100,0,0,100,0.00,40.00,0,-999,0,0.00
2013-10-31,66,55,45,-100,-100,-100,0,0,100,0.00,40.00,0,-999,0,0.00
2013-11-1,63,47,36,-100,-100,-100,0,0,100,0.00,40.00,0,-999,0,0.00
2013-11-2,68,49,31,-100,-100,-100,0,0,100,0.00,40.00,0,-999,0,0.00
2013-11-3,78,59,47,-100,-100,-100,0,0,100,0.00,40.00,0,-999,0,0.00
2013-11-4,62,51,41,-100,-100,-100,0,0,100,0.00,40.00,0,-999,0,0.00
2013-11-5,58,48,38,-100,-100,-100,0,0,100,0.00,40.00,0,-999,0,0.00
2013-11-6,59,44,30,-100,-100,-100,0,0,100,0.00,40.00,0,-999,0,0.00
2013-11-7,66,49,30,-100,-100,-100,0,0,100,0.00,40.00,0,-999,0,0.00
2013-11-8,75,54,43,-100,-100,-100,0,0,100,0.00,40.00,0,-999,0,0.00
2013-11-9,65,50,37,-100,-100,-100,0,0,100,0.00,40.00,0,-999,0,0.00
2013-11-10,58,49,36,-100,-100,-100,0,0,100,0.00,40.00,0,-999,0,0.00
2013-11-11,69,47,32,-100,-100,-100,0,0,100,0.00,40.00,0,-999,0,0.00
2013-11-12,44,33,25,-100,-100,-100,0,0,100,0.00,40.00,0,-999,0,0.00
2013-11-13,68,51,30,-100,-100,-100,0,0,100,0.00,40.00,0,-999,0,0.00
2013-11-14,62,51,36,-100,-100,-100,0,0,100,0.00,40.00,0,-999,0,0.00
2013-11-15,72,50,30,-100,-100,-100,0,0,100,0.00,40.00,0,-999,0,0.00
2013-11-16,73,63,56,-100,-100,-100,0,0,100,0.00,40.00,0,-999,0,0.00
2013-11-17,69,54,40,-100,-100,-100,0,0,100,0.00,40.00,0,-999,0,0.00
2013-11-18,61,44,29,-100,-100,-100,0,0,100,0.00,40.00,0,-999,0,0.00
2013-11-19,74,54,38,-100,-100,-100,0,0,100,0.00,40.00,0,-999,0,0.00
2013-11-20,65,55,44,-100,-100,-100,0,0,100,0.00,40.00,0,-999,0,0.00
2013-11-21,53,35,23,-100,-100,-100,0,0,100,0.00,40.00,0,-999,0,0.00
2013-11-22,27,23,20,-100,-100,-100,0,0,100,0.00,40.00,0,-999,0,0.00
2013-11-23,34,30,25,-100,-100,-100,0,0,100,0.00,40.00,0,-999,0,0.00
2013-11-24,35,32,29,-100,-100,-100,0,0,100,0.00,40.00,0,-999,0,0.00
2013-11-25,32,28,21,-100,-100,-100,0,0,100,0.00,40.00,0,-999,0,0.00
2013-11-26,43,34,26,-100,-100,-100,0,0,100,0.00,40.00,0,-999,0,0.00
2013-11-27,58,38,24,-100,-100,-100,0,0,100,0.00,40.00,0,-999,0,0.00
2013-11-28,47,38,31,-100,-100,-100,0,0,100,0.00,40.00,0,-999,0,0.00
2013-11-29,62,41,24,-100,-100,-100,0,0,100,0.00,40.00,0,-999,0,0.00
2013-11-30,65,44,32,-100,-100,-100,0,0,100,0.00,40.00,0,-999,0,0.00
2013-12-1,66,46,35,-100,-100,-100,0,0,100,0.00,40.00,0,-999,0,0.00
2013-12-2,70,49,32,-100,-100,-100,0,0,100,0.00,40.00,0,-999,0,0.00
2013-12-3,75,54,35,-100,-100,-100,0,0,100,0.00,40.00,0,-999,0,0.00
2013-12-4,36,29,19,-100,-100,-100,0,0,100,0.00,40.00,0,-999,0,0.00
2013-12-5,19,16,14,-100,-100,-100,0,0,100,0.00,40.00,0,-999,0,0.00
2013-12-6,18,12,7,-100,-100,-100,0,0,100,0.00,40.00,0,-999,0,0.00
2013-12-7,20,14,10,-100,-100,-100,0,0,100,0.00,40.00,0,-999,0,0.00
2013-12-8,41,25,15,-100,-100,-100,0,0,100,0.00,40.00,0,-999,0,0.00
2013-12-9,25,17,12,-100,-100,-100,0,0,100,0.00,40.00,0,-999,0,0.00
2013-12-10,54,30,10,-100,-100,-100,0,0,100,0.00,40.00,0,-999,0,0.00
2013-12-11,39,30,20,-100,-100,-100,0,0,100,0.00,40.00,0,-999,0,0.00
2013-12-12,59,36,19,-100,-100,-100,0,0,100,0.00,40.00,0,-999,0,0.00
2013-12-13,53,39,28,-100,-100,-100,0,0,100,0.00,40.00,0,-999,0,0.00
2013-12-14,52,37,29,-100,-100,-100,0,0,100,0.00,40.00,0,-999,0,0.00
2013-12-15,63,40,20,-100,-100,-100,0,0,100,0.00,40.00,0,-999,0,0.00
2013-12-16,66,44,29,-100,-100,-100,0,0,100,0.00,40.00,0,-999,0,0.00
2013-12-17,60,42,31,-100,-100,-100,0,0,100,0.00,40.00,0,-999,0,0.00
2013-12-18,69,48,29,-100,-100,-100,0,0,100,0.00,40.00,0,-999,0,0.00
2013-12-19,61,44,35,-100,-100,-100,0,0,100,0.00,40.00,0,-999,0,0.00
2013-12-20,33,27,20,-100,-100,-100,0,0,100,0.00,40.00,0,-999,0,0.00
2013-12-21,29,27,18,-100,-100,-100,0,0,100,0.00,40.00,0,-999,0,0.00
2013-12-22,39,27,18,-100,-100,-100,0,0,100,0.00,40.00,0,-999,0,0.00
2013-12-23,25,22,19,-100,-100,-100,0,0,100,0.00,40.00,0,-999,0,0.00
2013-12-24,50,32,16,-100,-100,-100,0,0,100,0.00,40.00,0,-999,0,0.00
2013-12-25,49,38,29,-100,-100,-100,0,0,100,0.00,40.00,0,-999,0,0.00
2013-12-26,56,39,26,-100,-100,-100,0,0,100,0.00,40.00,0,-999,0,0.00
2013-12-27,62,39,26,-100,-100,-100,0,0,100,0.00,40.00,0,-999,0,0.00
2013-12-28,60,40,25,-100,-100,-100,0,0,100,0.00,40.00,0,-999,0,0.00
2013-12-29,39,25,19,-100,-100,-100,0,0,100,0.00,40.00,0,-999,0,0.00
2013-12-30,54,35,18,-100,-100,-100,0,0,100,0.00,40.00,0,-999,0,0.00
2013-12-31,60,41,25,-100,-100,-100,0,0,100,0.00,40.00,0,-999,0,0.00
2014-1-1,45,31,21,-100,-100,-100,0,0,100,0.00,40.00,0,-999,0,0.00
2014-1-2,54,33,19,-100,-100,-100,0,0,100,0.00,40.00,0,-999,0,0.00